Location: Aressy
(43.2833°N, 0.3167°W)
Time: 01:24:59
(UTC+00:00)

YAOGAN 1 - Pass Details

Date: 28 January 2021
Orbit: 618 x 620 km, 97.9° (Epoch: 08 March)

Event Time Altitude Azimuth Distance (km) Brightness Sun altitude
Rises 17:33:37 0° 125° (SE) 2,889 5.7 -5.1°
Reaches altitude 10° 17:36:22 10° 107° (ESE) 1,988 4.7 -5.6°
Maximum altitude 17:39:17 18° 64° (ENE) 1,533 4.0 -6.1°
Drops below altitude 10° 17:42:13 10° 22° (NNE) 1,997 4.8 -6.6°
Sets 17:44:58 0° 3° (N) 2,908 5.8 -7.1°
